Location: Unspecified
(0.0000°N, 0.0000°E)
Time: 02:04:55
(UTC+00:00)

deb r/b Ablestar - Pass Details

Date: 19 December 2025
Orbit: 815 x 921 km, 66.9° (Epoch: 13 January)

Event Time Altitude Azimuth Distance (km) Brightness Sun altitude
Rises 19:21:32 0° 204° (SSW) 3,519 ? -19.2°
Reaches altitude 10° 19:24:03 10° 207° (SSW) 2,588 ? -19.8°
Maximum altitude 19:30:02 69° 289° (WNW) 973 ? -21.2°
Enters shadow 19:34:00 23° 8° (N) 1,866 ? -22.1°
